RH
34 37 40 44 44 43 45 48 44 42 46 50 48 47 44 47 50 50 43 44 44 42 41 54 65 63 45 29 29 33 29 26 23 25 25 28 28 26 27 24 22 24 25 21 23
38 41 44 44 47 49 50 50 52 50 48 49 54 54 52 55 55 52 58 54 49 48 44 58 61 68 48 34 34 40 37 28 26 27 27 27 27 30 29 30 28 27 27 28 25
43 46 47 50 50 50 50 52 56 58 57 59 60 58 62 61 62 71 71 66 61 50 48 61 63 71 58 41 41 45 38 32 29 28 29 30 29 28 32 31 30 30 31 32 29
48 50 50 48 49 50 51 54 58 60 58 58 61 63 68 66 63 67 68 63 67 55 58 68 65 60 67 60 51 41 35 34 32 30 31 32 31 28 30 31 28 36 35 35 38
47 48 44 40 40 43 46 53 57 56 56 53 52 54 50 49 50 55 63 61 66 61 68 74 66 64 68 73 60 47 44 38 36 31 30 28 30 31 29 33 32 33 31 37 35
51 46 37 32 30 31 37 44 46 47 44 45 40 38 36 39 41 44 45 52 54 62 75 63 60 68 62 69 56 49 43 35 37 34 30 30 28 30 29 30 32 37 32 35 36
35 31 32 34 31 30 29 30 31 34 34 33 35 37 37 39 39 38 43 42 44 47 46 50 61 66 64 62 53 50 51 41 34 38 33 29 28 28 27 30 37 35 39 36 34
35 32 38 38 36 35 35 34 35 35 35 36 36 36 36 36 38 39 40 43 44 44 47 55 60 61 64 63 63 60 54 54 38 36 34 30 28 26 27 25 28 30 33 39 39
38 34 35 36 39 40 42 42 42 40 38 38 39 38 36 36 34 33 34 38 41 40 43 44 44 46 47 50 49 50 57 60 46 38 39 35 31 27 26 26 29 30 38 50 48
42 42 39 37 36 37 38 37 37 38 38 38 37 37 36 37 36 35 36 37 41 43 44 45 44 43 43 44 43 50 56 53 51 38 40 36 34 30 26 25 25 29 34 45 63
43 42 42 38 34 35 39 40 41 35 36 36 36 37 39 39 37 38 40 42 45 47 48 48 46 46 44 44 49 53 64 65 59 45 35 38 39 33 28 26 26 27 29 39 59
45 43 45 48 43 38 38 40 42 40 36 38 38 40 42 42 40 39 40 43 48 49 49 48 49 48 48 43 45 61 69 47 42 38 37 37 37 35 31 29 27 32 32 39 49
43 45 48 47 41 40 41 40 37 39 38 39 42 44 44 43 41 40 38 43 45 47 45 48 53 53 52 48 46 46 49 38 31 35 38 39 38 33 30 32 28 38 42 54 55
42 44 49 46 43 41 39 37 39 39 40 41 42 44 42 43 42 38 38 40 42 43 42 50 57 59 56 50 46 55 36 39 37 37 41 41 36 33 29 31 28 39 51 45 56
38 38 44 47 44 43 42 42 42 42 42 44 42 41 39 40 40 39 37 36 41 45 48 44 53 59 57 50 49 60 57 40 38 37 42 38 37 32 30 31 29 32 38 54 59
40 42 47 49 46 46 45 45 46 44 42 40 39 39 40 40 39 37 38 37 38 40 38 37 36 41 45 48 54 57 50 47 42 36 46 39 34 28 30 36 35 40 52 60 65
52 51 48 48 48 46 43 42 40 39 40 42 41 42 42 40 39 39 37 35 34 37 39 34 35 39 44 47 60 51 48 36 36 38 40 37 34 32 48 39 41 47 60 67 74
55 55 53 50 48 47 47 43 42 42 44 44 42 42 40 37 39 38 35 32 31 35 36 35 36 41 46 58 56 56 42 35 36 38 37 40 43 42 62 48 42 50 55 70 70
58 56 55 58 59 54 50 48 47 45 43 39 38 35 35 36 37 34 32 31 32 34 36 35 39 48 60 48 46 40 41 40 41 40 37 36 37 75 47 65 49 70 76 74 72
58 59 56 58 57 56 51 48 44 41 40 40 38 36 36 34 30 27 32 34 38 36 35 38 47 60 42 36 38 42 46 41 44 40 34 35 38 85 51 64 66 100 89 88 94
59 66 64 61 53 44 40 39 38 37 38 38 36 35 33 29 28 30 32 32 36 37 36 44 61 51 36 37 42 43 41 40 42 44 38 36 46 52 69 48 74 90 100 100 100
38 39 45 44 43 41 40 39 40 39 38 38 38 32 31 30 29 31 34 34 34 33 43 66 59 33 28 36 38 41 37 39 44 44 50 34 57 50 76 44 87 94 100 100 100
48 45 42 41 42 41 41 40 40 38 33 30 31 30 27 27 27 26 29 33 49 67 70 67 64 53 43 36 39 39 35 41 53 51 69 42 64 84 70 75 94 100 100 100 100
42 43 44 42 41 40 37 35 33 31 30 30 30 29 28 28 29 31 36 59 79 83 77 70 69 53 48 41 39 38 40 56 67 67 62 56 50 100 78 100 100 100 100 100 100
43 42 40 39 38 38 35 32 30 27 26 29 27 27 26 30 35 34 57 77 81 77 74 60 50 39 37 43 45 38 51 70 88 81 87 74 88 100 95 100 100 100 100 100 91
35 34 34 30 26 24 24 24 25 25 23 26 27 33 40 42 40 45 78 82 73 62 40 37 37 38 39 50 48 46 74 90 81 86 77 90 81 100 100 100 100 100 100 77 37
25 27 25 26 29 29 32 30 28 30 33 38 44 50 57 63 69 75 80 67 38 35 38 39 37 43 40 52 66 70 78 74 69 81 95 99 90 100 100 100 100 99 75 35 35
Wind_Speed
40 38 35 33 30 28 27 26 24 22 22 23 23 23 23 24 24 25 28 27 29 33 37 39 43 47 48 49 51 55 57 55 56 53 52 48 48 51 47 48 46 46 45 41 37
36 33 30 28 26 24 23 22 21 19 18 17 18 19 18 18 20 22 22 23 26 30 32 35 39 43 45 45 48 53 53 55 53 52 50 47 46 48 50 51 51 48 46 46 42
30 28 25 24 23 21 20 19 18 16 14 14 14 14 15 15 16 17 19 22 23 27 29 32 36 39 42 43 45 50 53 53 55 52 47 50 47 44 49 47 52 55 51 51 49
25 23 21 20 18 17 16 16 16 14 11 9 9 10 10 12 13 15 18 22 24 25 28 34 36 36 40 41 44 48 51 53 54 45 45 46 46 47 44 47 45 53 56 60 60
22 20 18 15 15 15 14 14 12 10 9 9 10 11 13 15 17 18 20 23 25 24 29 33 36 38 40 41 42 44 47 48 50 48 45 49 47 44 45 45 50 49 56 63 60
18 17 16 15 14 13 12 11 10 8 8 9 10 11 14 17 20 22 23 25 28 28 31 34 37 40 41 42 42 42 45 43 48 52 52 47 48 48 45 44 50 54 53 57 64
17 16 14 12 12 12 12 10 7 6 8 8 8 10 13 17 21 23 25 27 29 31 34 36 37 41 42 42 44 46 46 46 47 51 51 51 50 48 46 50 52 57 60 69 66
16 14 13 11 11 8 7 5 5 6 6 8 10 13 16 18 21 23 25 27 29 31 34 36 38 41 41 45 47 49 49 49 48 49 55 56 52 48 49 50 54 58 64 73 75
13 12 10 8 7 5 4 3 3 4 6 8 11 15 17 21 24 27 27 27 30 33 34 37 40 42 45 48 51 51 50 52 51 49 53 55 55 53 51 52 59 59 66 70 78
12 9 8 6 6 3 2 2 2 4 6 9 13 17 21 25 27 28 29 31 33 35 37 39 43 47 50 53 54 53 54 55 56 53 58 59 58 57 56 55 57 64 70 75 76
11 9 8 7 6 6 6 7 8 9 11 14 17 21 25 27 28 29 31 32 33 36 38 40 44 47 51 54 55 52 55 58 55 56 58 57 57 57 55 56 55 62 68 77 80
12 10 10 9 9 9 10 11 13 14 16 19 21 24 26 28 30 32 34 35 36 39 41 43 46 49 53 56 59 55 55 57 55 57 58 57 55 55 54 57 63 68 73 78 84
14 13 13 14 13 14 16 16 17 18 19 21 24 27 30 31 34 36 37 38 40 42 43 46 48 52 56 59 61 59 56 56 57 62 62 59 60 60 58 63 65 73 75 80 85
19 18 18 18 17 17 16 16 19 22 24 25 28 31 33 36 38 38 41 43 44 46 46 49 50 56 59 62 64 64 59 58 62 69 67 68 66 62 62 66 67 79 83 88 90
24 24 22 22 22 22 22 23 26 28 29 30 34 36 38 41 42 43 45 46 48 50 50 51 54 57 62 64 66 66 62 60 63 70 71 70 69 66 64 69 77 82 88 93 98
27 27 27 26 26 27 28 30 32 33 35 37 39 40 42 43 45 48 50 51 52 52 54 55 58 60 64 66 68 66 64 64 67 66 67 70 71 72 70 71 78 88 95 101 101
30 30 31 30 31 33 34 36 37 38 40 42 43 44 46 48 50 52 55 55 56 57 58 59 61 63 66 68 69 68 69 69 68 66 68 71 75 80 84 80 86 92 97 101 104
35 35 35 36 37 38 39 40 42 43 45 46 47 48 50 53 55 57 59 60 61 61 61 63 65 66 68 70 69 70 75 76 74 72 68 70 78 87 89 89 91 97 103 104 111
41 41 41 41 42 43 44 44 46 48 49 50 52 53 56 58 59 61 62 62 63 63 63 63 69 70 69 70 70 72 77 77 78 75 71 70 75 89 93 95 99 103 105 109 113
46 46 46 47 47 48 48 49 51 53 54 55 57 60 61 62 62 62 65 65 66 66 67 66 66 70 71 71 73 80 82 83 81 80 77 77 82 92 99 97 103 105 111 114 114
51 50 51 52 52 53 54 56 58 58 59 60 63 64 65 65 65 65 66 68 68 69 70 66 65 71 74 72 75 78 80 81 83 83 87 86 84 97 103 106 109 114 117 119 118
57 56 58 58 59 61 61 62 62 64 65 66 67 67 67 67 66 69 71 72 72 73 69 68 67 71 75 79 79 79 82 84 92 91 93 95 94 104 108 115 115 117 118 120 119
64 63 64 64 64 65 65 66 67 68 70 68 69 71 72 71 71 73 77 75 72 70 69 72 74 78 81 83 85 84 88 96 100 97 101 103 106 108 113 116 119 123 122 121 120
69 68 68 68 68 68 69 69 71 72 72 73 74 76 75 75 77 73 71 70 70 74 80 80 81 87 89 89 90 87 84 98 102 107 109 109 111 115 119 118 123 126 123 119 118
73 71 72 71 72 73 73 74 77 77 76 77 77 80 77 74 77 76 73 74 78 82 85 89 87 89 90 90 89 86 92 103 106 107 115 115 114 117 122 124 124 124 120 115 111
77 79 77 75 76 77 78 78 78 80 78 78 79 78 77 74 78 74 75 80 84 87 89 93 94 93 83 98 94 93 101 105 107 108 116 120 119 123 124 129 126 126 112 106 102
82 80 79 80 81 82 82 82 82 81 79 79 78 76 75 75 76 80 84 87 89 90 93 94 95 96 91 97 101 95 102 107 111 115 121 126 130 129 130 132 130 118 107 104 102
Wind_Direction
126 123 120 118 116 112 108 105 102 96 84 76 72 66 66 57 47 42 45 35 32 30 32 31 24 20 18 21 20 18 12 9 9 9 13 16 18 15 22 18 18 13 8 1 351
126 122 121 117 113 109 108 108 103 92 84 74 68 67 64 47 42 39 29 18 15 20 24 24 18 16 15 17 17 14 15 10 8 7 8 11 12 15 16 20 22 21 16 11 1
124 121 120 116 114 113 112 108 102 96 85 71 61 52 46 38 28 21 13 6 8 15 17 12 11 8 9 12 13 13 12 9 7 5 5 6 10 11 21 20 22 26 22 16 11
124 123 122 117 114 111 111 113 108 101 90 76 59 49 36 23 12 3 5 2 1 5 2 1 359 360 359 3 8 12 13 9 6 4 4 4 5 6 7 21 21 26 28 26 21
125 122 116 113 116 117 121 115 111 101 91 68 51 37 26 19 12 6 4 3 2 356 355 355 356 353 353 355 1 8 10 9 4 1 359 357 1 3 6 10 18 21 23 25 21
127 125 125 121 117 119 121 118 113 105 81 60 42 36 26 21 18 13 7 6 4 359 353 352 355 351 351 353 355 359 5 6 3 359 356 355 355 356 357 0 14 15 20 21 16
130 129 127 128 122 114 113 108 104 91 69 52 37 20 14 9 7 4 3 4 0 357 353 354 352 348 351 352 350 351 357 2 4 356 355 352 349 351 355 5 10 13 14 14 12
138 138 139 133 122 116 104 84 57 44 31 20 5 1 360 358 358 356 355 353 353 354 355 355 351 348 350 347 346 346 348 353 358 357 351 348 348 346 353 355 3 6 5 11 10
152 145 147 149 141 130 115 93 30 2 357 346 343 346 348 350 352 352 350 348 351 351 352 350 348 348 347 346 345 345 344 346 347 353 354 349 344 343 345 358 3 2 7 5 4
174 172 173 181 181 192 217 251 319 326 322 329 335 338 343 343 343 344 344 345 345 345 343 344 344 346 347 346 345 346 344 344 343 344 344 345 341 339 340 346 351 0 3 2 358
195 202 207 216 229 248 261 275 297 306 315 324 329 334 335 335 336 336 338 339 337 338 337 338 341 342 344 344 345 344 343 342 342 341 341 344 341 338 339 341 347 354 359 358 357
216 230 245 254 256 259 261 268 281 292 303 315 321 326 326 327 326 328 332 331 331 331 332 334 336 338 340 341 343 340 341 340 338 337 339 342 341 338 335 342 351 353 355 355 352
232 249 255 258 263 271 271 271 274 286 296 305 311 318 318 318 320 323 326 326 326 326 328 331 333 333 335 336 338 338 337 338 338 339 338 340 337 339 336 340 345 351 350 349 349
243 251 254 258 268 276 277 279 282 288 295 301 305 308 311 312 315 317 321 321 321 323 326 327 329 329 329 331 334 334 335 334 336 337 334 335 333 331 334 336 341 344 346 346 346
250 258 259 263 268 273 277 282 286 290 295 299 303 307 309 310 313 315 317 319 319 321 321 325 324 325 326 327 329 331 331 331 331 333 335 334 332 329 332 335 342 344 345 344 345
257 261 265 269 271 274 278 283 288 291 295 298 301 303 306 308 311 315 315 315 317 317 320 322 324 324 324 324 326 328 329 329 330 332 332 332 328 333 339 343 342 344 342 343 342
258 263 266 269 272 276 280 284 287 292 295 296 300 301 304 307 311 311 312 314 316 317 318 320 321 321 321 323 324 325 326 327 326 330 329 327 330 335 336 343 342 342 339 341 338
259 261 265 269 274 279 282 287 291 293 292 294 296 300 304 307 308 309 312 313 316 317 316 318 318 318 318 320 321 323 324 323 324 325 327 332 334 333 333 341 341 341 339 337 336
259 263 266 269 272 276 279 282 285 287 289 292 297 300 303 305 306 308 311 312 314 315 314 316 315 315 317 318 320 324 323 322 321 321 324 329 336 330 334 338 339 339 336 335 336
260 263 266 270 272 274 277 280 282 286 290 294 296 299 301 303 305 308 309 310 311 312 313 313 313 313 317 321 322 322 322 320 319 320 323 328 336 326 333 333 336 333 333 332 331
259 262 265 268 272 275 278 281 284 288 291 293 295 299 300 301 304 306 306 308 308 308 309 309 312 313 317 319 322 321 319 317 322 322 327 331 337 329 330 335 336 332 331 328 329
264 266 267 270 270 274 278 283 286 289 291 293 294 297 298 300 301 303 304 305 305 306 306 307 311 313 315 317 317 321 323 320 321 324 327 328 333 334 330 335 332 330 327 327 326
268 270 272 274 277 281 284 287 288 289 290 292 293 295 296 298 298 301 304 306 306 305 304 306 309 307 313 312 311 314 316 316 318 323 324 331 329 329 329 332 328 327 326 326 323
267 270 273 276 278 279 282 285 285 286 288 290 291 293 294 295 298 301 301 302 303 305 305 307 309 310 312 313 313 316 319 316 319 323 323 328 331 323 327 326 325 325 324 323 322
267 268 271 274 277 279 280 281 283 285 287 287 288 290 295 297 296 299 301 304 304 304 305 305 307 307 311 309 313 321 321 315 314 318 319 323 325 321 325 322 321 322 321 321 320
270 269 270 273 277 276 278 279 281 282 285 288 291 293 293 294 296 298 299 301 302 304 305 307 308 304 309 311 314 321 313 313 315 317 320 321 325 321 320 319 318 318 319 319 319
267 270 273 275 276 279 279 280 282 284 286 288 288 291 293 294 296 297 298 300 302 303 303 307 307 305 307 308 311 314 313 312 314 318 318 319 322 320 317 316 317 318 317 318 318